Location: ??????
(38.0677°N, 22.9870°E)
Time: 11:36:14
(UTC+00:00)

COBE Rocket - Pass Details

Date: 23 May 2024
Orbit: 678 x 776 km, 97.1° (Epoch: 18 June)

Event Time Altitude Azimuth Distance (km) Brightness Sun altitude
Rises 00:40:54 0° 3° (N) 3,139 8.1 -23.2°
Reaches altitude 10° 00:43:14 10° 357° (N) 2,230 7.1 -22.9°
Maximum altitude 00:47:52 43° 287° (WNW) 1,035 4.5 -22.4°
Enters shadow 00:48:27 41° 268° (W) 1,066 4.4 -22.3°
